CAPE
0 0 0 0 0 0 0 0 0 0 0 0 0 0 0 0 0 0 0 0 0 3 4 8 9 7 2 3 6 5 5 8 5 4 10 21 34 31 15 16 18 15 7
0 0 0 0 0 0 0 0 0 0 0 0 0 0 0 0 0 0 0 0 0 2 6 7 6 3 8 9 3 9 8 8 10 8 15 15 15 39 21 15 14 18 11
0 0 0 0 0 0 0 0 0 0 0 0 0 0 0 0 0 0 0 0 2 4 4 7 6 9 9 7 8 6 6 9 9 9 6 7 10 26 22 9 9 28 0
0 0 0 0 0 0 0 0 0 0 0 0 0 0 0 0 0 0 0 2 2 2 3 3 5 5 6 6 3 5 6 9 9 8 7 11 11 23 16 24 11 28 39
0 0 0 0 0 0 0 0 0 1 0 0 0 0 0 0 0 1 2 2 1 1 1 0 1 0 0 0 0 1 7 5 8 8 7 8 8 4 4 14 16 10 10
0 0 0 0 0 0 0 1 1 0 0 0 0 1 2 0 0 0 0 2 1 0 0 1 0 0 0 0 0 0 0 4 7 9 9 13 8 11 11 9 4 4 10
0 0 0 0 0 0 0 0 1 1 1 0 2 4 3 0 0 0 0 0 0 0 1 0 0 0 0 0 0 0 0 0 0 7 13 11 11 10 11 3 4 6 12
0 0 0 0 0 0 0 0 3 2 1 0 3 5 3 0 0 0 0 0 0 0 0 0 0 0 0 0 0 0 0 2 4 4 9 12 9 7 4 6 5 13 13
0 0 0 0 0 0 0 1 1 2 1 0 1 2 2 0 0 0 0 0 0 0 0 0 0 0 0 0 0 0 0 0 0 0 0 0 0 0 0 3 5 3 9
0 0 0 0 0 0 0 1 4 2 0 0 0 0 0 0 0 0 0 0 0 0 0 0 0 0 0 0 0 0 0 0 0 0 0 2 0 1 0 8 2 2 9
0 0 0 0 0 0 1 2 2 0 0 0 0 0 0 0 0 0 0 0 0 0 0 0 0 0 0 0 0 0 0 0 0 2 2 3 1 1 3 3 9 4 4
0 0 0 0 0 0 0 0 0 1 1 0 0 0 0 0 0 0 0 0 0 0 0 0 0 0 0 0 0 0 0 0 0 0 1 3 3 1 4 5 37 1 1
0 0 0 0 0 0 0 0 0 2 0 0 0 0 0 0 0 0 0 0 0 0 0 0 0 0 0 0 0 0 0 0 0 0 1 2 1 0 6 5 7 38 106
0 0 0 0 0 0 0 0 0 1 0 0 0 0 0 0 0 0 0 0 0 0 0 0 0 0 0 0 0 0 0 0 0 0 0 3 5 0 4 3 12 4 21
0 0 0 0 0 0 0 0 0 0 0 1 0 0 0 0 0 0 0 0 0 0 0 0 0 0 0 0 0 0 0 0 0 0 2 2 3 6 5 10 9 14 11
0 0 0 0 0 0 0 0 0 0 0 0 0 0 0 0 0 0 0 0 0 0 0 0 0 0 0 0 0 0 0 0 0 0 0 0 1 4 2 6 7 10 9
0 0 0 0 0 0 0 1 4 0 0 0 0 0 0 0 0 0 0 0 0 0 0 0 0 0 0 0 0 0 0 0 0 0 0 0 0 0 2 5 10 10 8
0 0 0 0 0 0 2 1 1 9 0 0 0 0 0 0 0 0 0 0 0 0 0 0 0 0 0 0 0 0 0 0 0 0 0 0 0 0 0 0 5 16 11
0 0 0 0 0 1 0 0 0 0 0 0 0 0 0 0 0 0 0 0 0 0 0 0 0 0 0 0 0 0 0 0 0 0 0 0 0 0 0 0 1 0 0
0 0 0 0 0 0 0 0 0 0 0 0 0 0 0 0 0 0 0 0 0 0 0 0 0 0 0 0 0 0 0 0 0 0 0 0 0 0 0 0 0 1 3
1 0 0 0 0 0 0 0 0 0 0 0 0 0 0 0 0 0 0 0 0 0 0 0 0 0 0 0 0 0 0 0 0 0 0 0 0 0 0 0 0 0 0
2 0 1 0 0 0 0 0 0 0 0 0 0 0 0 0 0 0 0 0 0 0 0 0 0 0 0 0 0 0 0 0 0 0 0 0 0 0 0 0 0 0 0
1 1 0 0 0 0 1 0 0 0 0 0 0 0 0 0 0 0 0 0 0 0 0 0 0 0 0 0 0 0 0 0 0 0 0 0 0 0 0 0 0 0 0
6 4 3 0 0 1 2 0 0 0 0 0 0 0 0 0 0 0 0 0 0 0 0 0 0 0 0 0 0 0 0 0 0 0 0 0 0 0 0 0 0 0 0
1 6 4 0 0 1 0 0 0 0 0 0 0 0 0 0 0 0 0 0 0 0 0 0 0 0 0 0 0 0 0 0 0 0 0 0 0 0 0 0 0 0 0
0 1 4 0 0 0 0 0 0 0 0 0 0 0 0 0 0 0 0 0 0 0 0 0 0 0 0 0 0 0 0 0 0 0 0 0 0 0 0 0 0 0 0
CIN
0 0 0 0 0 0 0 0 0 0 0 0 0 0 0 0 0 0 0 0 0 0 0 0 0 0 0 0 0 0 0 0 0 0 0 0 0 0 0 0 0 0 0
0 0 0 0 0 0 0 0 0 0 0 0 0 0 0 0 0 0 0 0 0 0 0 0 0 0 0 0 0 0 0 0 0 0 0 0 0 0 0 0 0 0 0
0 0 0 0 0 0 0 0 0 0 0 0 0 0 0 0 0 0 0 0 0 0 0 0 0 0 0 0 0 0 0 0 0 0 0 -1 0 0 0 0 -2 0 0
0 0 0 0 0 0 0 0 0 0 0 0 0 0 0 0 0 0 0 0 0 0 0 0 0 0 0 0 0 0 0 0 0 0 0 0 0 0 0 0 0 0 0
0 0 0 0 0 0 0 0 0 0 0 0 0 0 0 0 0 0 0 0 0 0 0 0 0 0 0 0 0 0 0 0 0 0 0 0 0 0 0 0 0 0 0
0 0 0 0 0 0 0 0 0 0 0 0 0 0 0 0 0 0 0 0 0 0 0 0 0 0 0 0 0 0 0 0 0 0 0 0 0 0 -1 0 0 0 0
0 0 0 0 0 0 0 0 0 0 0 0 0 0 0 0 0 0 0 0 0 0 0 0 0 0 0 0 0 0 0 0 -1 0 0 0 0 0 0 0 0 0 0
0 0 0 0 0 0 0 0 0 0 0 0 0 0 0 0 0 0 0 0 0 0 0 0 0 0 0 0 0 0 0 0 0 0 0 0 0 0 0 0 0 0 0
0 0 0 0 0 0 0 0 0 0 0 0 0 0 0 0 0 0 0 0 0 0 0 0 0 0 0 0 0 0 0 0 0 0 0 0 0 0 0 0 0 0 0
0 0 0 0 0 0 0 0 0 0 0 0 0 0 0 0 0 0 0 0 0 0 0 0 0 0 0 0 0 0 0 0 0 0 0 -1 0 0 0 0 0 0 0
0 0 0 0 0 0 0 0 0 0 0 0 0 0 0 0 0 0 0 0 0 0 0 0 0 0 0 0 0 0 0 0 0 0 0 0 0 0 0 0 0 0 0
0 0 0 0 0 0 0 0 0 0 0 0 0 0 0 0 0 0 0 0 0 0 0 0 0 0 0 0 0 0 0 0 0 0 0 0 0 0 0 0 -1 -3 0
0 0 0 0 0 0 0 0 0 0 0 0 0 0 0 0 0 0 0 0 0 0 0 0 0 0 0 0 0 0 0 0 0 0 0 0 0 0 0 0 0 -3 0
0 0 0 0 0 0 0 0 0 0 0 0 0 0 0 0 0 0 0 0 0 0 0 0 0 0 0 0 0 0 0 0 0 0 0 0 0 0 0 0 0 0 0
0 0 0 0 0 0 0 0 0 0 0 0 0 0 0 0 0 0 0 0 0 0 0 0 0 0 0 0 0 0 0 0 0 0 0 0 0 0 0 0 0 0 0
0 0 0 0 0 0 0 0 0 0 0 0 0 0 0 0 0 0 0 0 0 0 0 0 0 0 0 0 0 0 0 0 0 0 0 0 0 0 0 0 0 0 0
0 0 0 0 0 0 0 0 0 0 0 0 0 0 0 0 0 0 0 0 0 0 0 0 0 0 0 0 0 0 0 0 0 0 0 0 0 0 0 0 0 0 0
0 0 0 0 0 0 0 0 0 0 0 0 0 0 0 0 0 0 0 0 0 0 0 0 0 0 0 0 0 0 0 0 0 0 0 0 0 0 0 0 0 0 0
0 0 0 0 0 0 0 0 0 0 0 0 0 0 0 0 0 0 0 0 0 0 0 0 0 0 0 0 0 0 0 0 0 0 0 0 0 0 0 0 0 0 0
0 0 0 0 0 0 0 0 0 0 0 0 0 0 0 0 0 0 0 0 0 0 0 0 0 0 0 0 0 0 0 0 0 0 0 0 0 0 0 0 0 0 0
0 0 0 0 0 0 0 0 0 0 0 0 0 0 0 0 0 0 0 0 0 0 0 0 0 0 0 0 0 0 0 0 0 0 0 0 0 0 0 0 0 0 0
0 0 0 0 0 0 0 0 0 0 0 0 0 0 0 0 0 0 0 0 0 0 0 0 0 0 0 0 0 0 0 0 0 0 0 0 0 0 0 0 0 0 0
0 0 0 0 0 0 0 0 0 0 0 0 0 0 0 0 0 0 0 0 0 0 0 0 0 0 0 0 0 0 0 0 0 0 0 0 0 0 0 0 0 0 0
0 0 0 0 0 0 0 0 0 0 0 0 0 0 0 0 0 0 0 0 0 0 0 0 0 0 0 0 0 0 0 0 0 0 0 0 0 0 0 0 0 0 0
0 0 0 0 0 0 0 0 0 0 0 0 0 0 0 0 0 0 0 0 0 0 0 0 0 0 0 0 0 0 0 0 0 0 0 0 0 0 0 0 0 0 0
0 0 0 0 0 0 0 0 0 0 0 0 0 0 0 0 0 0 0 0 0 0 0 0 0 0 0 0 0 0 0 0 0 0 0 0 0 0 0 0 0 0 0
Wind_Speed
15 14 13 11 11 11 11 10 9 8 8 8 7 8 7 8 7 6 6 4 4 6 6 6 8 7 6 6 6 6 6 7 10 12 12 15 17 17 17 17 17 13 12
15 15 14 13 12 11 11 10 9 9 8 7 7 7 7 6 5 5 6 5 6 7 6 7 8 6 8 7 6 9 8 9 9 15 15 12 15 15 16 15 12 13 13
15 15 13 12 12 12 11 10 9 9 8 7 7 7 7 7 7 7 6 6 7 6 7 6 7 8 9 9 9 9 9 9 10 9 11 10 10 13 14 14 16 15 8
14 15 14 13 12 12 11 10 9 8 8 7 8 8 7 7 7 7 7 6 5 6 6 7 8 10 11 11 9 9 9 10 10 9 10 10 9 13 13 13 12 13 14
14 14 13 12 12 11 10 9 8 8 7 7 8 8 8 8 6 6 5 5 6 7 7 7 7 9 11 11 8 10 10 9 9 9 9 8 9 12 12 12 10 10 12
14 14 13 12 11 10 9 9 9 8 7 8 8 8 8 7 8 6 4 5 7 8 7 8 7 7 12 11 10 10 10 8 10 8 7 10 11 12 9 10 8 9 8
14 13 12 11 12 10 9 9 8 7 7 8 8 8 9 8 10 8 7 6 6 7 8 8 9 8 11 13 12 8 5 4 5 9 10 10 11 11 11 11 11 10 9
14 12 11 11 11 10 9 9 7 6 7 6 7 7 7 8 11 11 8 6 6 7 8 9 10 11 12 14 12 11 10 9 9 8 10 11 11 12 10 9 9 10 11
13 11 11 10 10 9 9 7 6 7 6 6 6 7 7 8 12 12 10 5 6 7 6 8 12 11 13 15 11 12 11 10 8 6 9 10 12 11 10 7 7 7 8
11 11 10 9 9 8 8 7 6 6 6 5 6 7 7 7 13 11 9 5 7 7 6 7 13 12 12 13 10 11 11 13 15 16 13 11 12 12 12 9 5 6 4
11 11 10 9 10 9 8 7 6 6 6 5 5 6 7 9 9 11 11 6 6 6 6 7 8 13 11 13 11 11 11 13 11 9 9 9 10 12 11 10 8 4 4
11 11 10 9 6 5 6 6 5 5 5 5 5 4 5 6 8 9 10 8 9 6 7 6 7 12 9 8 11 13 13 10 8 8 9 10 11 11 12 10 11 6 4
11 9 9 8 7 6 6 6 5 4 4 4 4 3 4 4 4 6 6 7 9 6 7 8 8 8 8 6 9 12 10 9 9 9 10 10 10 9 11 12 12 13 11
10 9 8 8 8 6 5 4 4 4 4 4 4 3 4 4 5 6 6 5 4 4 4 5 5 5 3 6 8 10 10 10 10 9 10 10 10 10 10 10 8 9 8
9 8 8 7 7 6 6 5 5 6 6 3 4 4 3 5 6 5 8 6 6 5 5 5 8 9 10 11 10 11 10 11 11 10 10 11 11 11 11 11 10 10 7
8 7 6 6 5 5 5 6 8 7 6 6 5 5 6 5 2 8 14 12 11 9 5 7 8 9 10 10 10 11 11 12 11 11 10 10 11 11 12 11 12 10 9
7 7 6 5 5 6 5 4 6 4 5 6 5 7 9 9 7 6 6 6 10 6 8 8 8 9 9 9 9 9 10 10 11 10 10 11 11 11 12 11 11 13 11
8 5 6 6 6 5 4 4 3 4 5 5 7 8 10 11 12 11 7 2 7 9 8 9 9 8 8 9 9 9 9 10 10 11 11 11 11 11 11 12 12 12 11
7 5 5 5 5 4 4 4 4 5 5 6 7 7 8 10 10 8 7 8 8 8 8 8 8 8 8 8 8 8 9 9 10 10 10 11 12 11 12 12 11 10 9
5 5 5 6 6 5 4 3 4 5 5 5 5 5 4 3 6 7 7 7 8 7 7 7 7 8 8 8 8 8 9 9 10 10 10 11 11 11 12 13 12 12 12
6 7 5 6 5 4 3 4 4 5 4 5 5 4 5 6 5 6 6 7 7 6 7 7 7 7 7 8 9 8 9 9 10 11 10 10 11 11 11 11 12 12 12
6 7 6 6 5 4 5 4 5 5 5 6 7 6 3 6 6 6 6 6 6 6 6 7 6 7 7 8 9 9 9 9 10 10 10 10 11 11 11 11 12 11 12
6 7 6 5 5 6 5 5 6 5 6 7 8 7 6 5 5 5 6 6 6 6 6 6 7 7 8 7 8 8 9 9 9 10 10 10 10 11 10 11 12 12 12
7 7 7 6 5 5 5 5 6 6 7 7 7 6 5 5 5 6 6 5 5 6 6 6 7 10 9 9 8 9 9 10 9 9 11 10 10 11 10 11 11 13 12
5 6 6 5 5 5 6 6 6 7 7 6 6 6 6 5 5 5 5 5 5 5 7 7 7 9 11 13 13 14 13 13 11 12 8 10 11 13 11 10 12 11 12
5 6 5 5 4 5 6 7 7 7 8 7 7 6 5 5 5 5 5 5 5 6 6 5 7 10 11 11 14 13 13 14 13 13 10 9 10 10 10 11 14 10 12
Wind_Direction
114 114 112 111 108 106 109 114 119 113 111 99 93 79 68 55 50 65 81 75 53 58 51 49 41 27 15 13 359 351 344 340 320 320 330 340 339 344 351 347 344 344 330
120 117 117 118 117 120 121 119 120 112 103 96 85 71 59 60 60 65 67 54 46 47 48 49 36 22 10 11 349 353 343 338 328 322 329 328 336 341 342 350 348 344 340
122 120 117 119 122 124 124 122 116 113 105 89 82 66 58 56 60 63 59 59 61 54 49 44 35 21 17 5 358 351 343 336 335 328 319 324 325 341 339 351 356 341 345
127 121 123 125 124 122 121 116 112 107 99 84 64 57 57 57 56 63 67 71 69 61 53 40 29 24 14 2 358 353 341 333 335 329 322 323 326 335 343 344 337 343 343
127 120 119 116 112 113 109 105 100 98 92 74 67 59 63 62 40 52 69 70 66 61 49 24 28 9 1 354 340 343 338 335 327 327 322 320 328 336 343 337 332 330 328
123 116 117 115 117 119 116 114 110 106 92 73 67 74 74 65 10 16 359 60 48 39 25 13 358 358 352 336 326 312 307 321 322 322 316 328 324 328 326 321 331 336 340
116 117 119 122 121 121 121 120 120 114 95 79 72 78 70 51 13 9 345 49 38 27 13 360 352 1 350 341 329 306 296 268 295 318 324 325 317 322 319 318 331 323 323
119 121 126 127 123 128 128 122 125 117 90 78 77 79 77 52 18 3 328 41 37 26 13 5 358 353 6 343 324 339 354 355 352 343 333 328 323 318 316 316 312 315 336
121 127 126 128 128 132 131 124 121 121 96 77 68 67 60 49 19 8 349 12 14 19 15 22 7 358 0 343 332 345 347 360 347 309 289 290 291 296 314 318 339 332 337
126 124 123 121 120 118 121 115 116 108 88 77 72 63 57 47 34 9 359 359 13 356 1 9 59 6 352 355 352 352 350 352 343 345 355 354 354 359 347 347 314 325 319
119 116 112 108 106 107 110 108 111 101 92 84 76 66 61 43 46 16 13 12 5 350 0 3 20 358 0 358 346 11 347 316 336 340 350 358 5 3 352 338 329 332 317
117 112 108 110 109 105 103 104 105 113 109 98 86 79 66 54 29 30 18 12 350 359 8 12 14 345 348 16 7 339 316 312 352 354 356 0 1 353 339 333 341 341 288
120 117 116 113 107 103 109 111 112 114 109 96 85 77 71 52 29 40 32 8 25 17 17 4 337 335 338 31 16 351 347 6 2 2 355 352 351 336 336 359 359 352 352
131 127 133 131 117 105 98 98 99 95 98 91 82 72 71 56 26 12 11 6 33 28 4 14 344 322 18 5 17 22 17 8 358 357 352 344 334 354 357 8 351 349 340
133 137 141 130 120 113 84 62 85 54 23 67 70 50 48 55 44 10 26 9 6 43 331 18 21 19 18 18 20 19 15 8 8 359 354 350 349 351 357 358 4 358 1
144 151 144 139 143 130 124 115 56 64 66 75 53 25 95 51 96 61 51 23 350 341 48 30 29 26 22 14 13 9 12 10 4 359 1 357 355 353 354 356 357 2 358
151 150 149 158 156 153 149 151 140 133 80 74 78 53 51 55 58 56 50 55 11 360 48 38 31 21 20 15 11 11 10 9 1 5 5 2 360 357 358 1 1 358 354
148 133 167 167 163 160 157 139 138 138 137 122 56 86 79 73 60 42 6 297 44 40 39 36 29 20 16 16 7 7 6 8 7 6 8 7 5 1 4 4 8 357 352
154 154 162 159 160 138 143 139 139 115 128 125 120 101 96 87 78 60 23 50 43 40 30 35 28 21 12 15 8 1 4 6 2 4 8 7 5 6 6 5 5 4 348
152 129 148 147 145 145 143 146 140 117 134 149 133 130 131 108 66 54 52 50 49 42 34 35 25 22 13 10 7 0 2 6 6 6 8 5 4 8 8 6 6 4 5
159 155 136 145 139 139 140 140 127 130 139 118 109 105 84 101 85 61 55 48 43 36 31 30 28 23 15 12 7 4 2 4 5 2 2 1 2 6 7 8 9 8 14
152 154 159 141 137 138 141 143 128 141 131 120 117 117 105 77 76 68 59 52 44 35 27 23 25 25 15 11 6 1 360 2 0 357 356 357 3 0 5 8 9 11 14
157 157 149 139 128 136 165 138 135 132 124 126 133 130 106 105 90 74 65 55 43 40 33 30 28 25 17 14 10 4 358 356 348 347 346 353 1 360 4 6 8 8 8
174 169 163 150 152 160 152 139 130 120 129 132 127 126 122 112 96 85 73 62 52 48 37 34 33 29 20 18 14 9 11 357 341 345 346 354 0 359 2 8 7 11 7
178 167 166 151 164 155 141 141 137 138 132 126 126 120 117 111 102 84 73 65 58 52 48 38 28 27 30 25 18 13 9 354 354 329 354 2 3 5 4 9 3 8 12
173 173 163 153 162 168 154 144 139 137 130 132 129 126 122 112 94 83 74 68 65 60 52 43 35 33 29 29 18 5 3 1 356 337 340 10 10 18 358 8 6 9 8